HST,Max TemperatureF,Mean TemperatureF,Min TemperatureF,Max Dew PointF,MeanDew PointF,Min DewpointF,Max Humidity, Mean Humidity, Min Humidity, Max Sea Level PressureIn, Mean Sea Level PressureIn, Min Sea Level PressureIn, Max VisibilityMiles, Mean VisibilityMiles, Min VisibilityMiles, Max Wind SpeedMPH, Mean Wind SpeedMPH, Max Gust SpeedMPH,PrecipitationIn, CloudCover, Events, WindDirDegrees
2013-1-1,75,72,68,66,64,59,93,77,60,30.17,30.12,30.07,10,9,3,26,17,31,0.16,8,Rain,9
2013-1-2,76,72,68,66,65,62,90,82,73,30.13,30.08,30.02,10,9,4,22,16,26,0.13,8,Rain,40
2013-1-3,73,70,66,66,64,62,90,76,62,30.13,30.08,30.04,10,9,4,24,18,30,0.02,8,Rain,33
2013-1-4,77,74,70,65,63,62,79,72,64,30.19,30.12,30.08,10,10,7,29,21,35,0.01,6,Rain,59
2013-1-5,76,74,71,67,65,63,84,76,68,30.21,30.16,30.12,10,9,2,31,23,40,0.02,7,Rain,68
2013-1-6,77,74,70,68,66,64,84,79,73,30.20,30.13,30.07,10,10,6,30,20,36,0.04,7,Rain,73
2013-1-7,76,73,70,67,66,64,90,82,73,30.14,30.07,30.02,10,8,2,28,18,33,0.21,8,Rain,66
2013-1-8,76,73,70,68,66,64,90,82,73,30.05,30.00,29.94,10,9,2,26,16,33,0.07,7,Rain,75
2013-1-9,77,75,72,68,66,64,84,77,69,30.03,29.99,29.94,10,10,10,23,17,29,T,7,,77
2013-1-10,77,75,72,66,65,63,79,70,60,30.02,29.99,29.95,10,10,10,18,13,23,0.00,5,,77
2013-1-11,77,73,68,66,64,63,84,74,64,30.03,29.96,29.92,10,10,8,20,13,23,0.00,3,,38
2013-1-12,77,71,64,70,65,61,93,81,69,29.99,29.95,29.90,10,9,2,13,6,15,0.09,4,Rain,317
2013-1-13,77,73,68,70,67,64,93,84,74,29.97,29.94,29.92,10,8,1,15,6,18,1.13,7,Rain,199
2013-1-14,77,73,68,70,66,60,97,85,73,29.96,29.93,29.91,10,8,2,24,9,28,0.92,7,Rain,312
2013-1-15,75,68,60,61,57,54,90,70,49,29.97,29.93,29.88,10,10,10,13,6,17,0.00,2,,240
2013-1-16,76,68,59,63,59,54,84,74,64,29.97,29.92,29.85,10,10,10,15,7,20,0.00,4,,256
2013-1-17,76,68,60,62,59,55,90,77,64,29.94,29.90,29.85,10,10,10,14,7,17,0.00,4,,284
2013-1-18,77,67,57,61,57,52,86,72,58,29.99,29.93,29.87,10,10,10,23,9,29,T,2,,308
2013-1-19,77,68,58,56,53,50,72,58,43,30.08,30.01,29.95,10,10,10,24,11,30,0.00,2,,338
2013-1-20,75,68,61,58,56,53,78,66,53,30.11,30.06,30.02,10,10,10,20,11,25,0.00,3,,356
2013-1-21,76,71,66,63,59,56,73,67,61,30.17,30.12,30.08,10,10,10,20,14,24,0.00,7,,41
2013-1-22,77,74,70,66,63,61,74,69,64,30.18,30.12,30.07,10,10,9,18,12,22,T,5,Rain,62
2013-1-23,75,72,69,66,63,59,84,74,64,30.12,30.08,30.04,10,10,3,20,10,24,0.03,7,Rain,67
2013-1-24,77,72,66,68,65,63,93,83,73,30.10,30.06,30.02,10,10,10,16,8,18,0.00,6,,117
2013-1-25,77,70,62,68,63,59,93,81,68,30.08,30.04,30.00,10,10,9,9,5,12,T,0,,243
2013-1-26,77,70,63,68,64,60,93,81,69,30.04,29.97,29.92,10,9,2,21,8,25,0.15,4,Rain,207
2013-1-27,74,68,62,68,64,58,93,83,73,29.99,29.93,29.89,10,6,1,30,11,39,2.51,7,Rain,234
2013-1-28,76,69,62,64,63,60,93,81,68,30.01,29.97,29.92,10,9,2,18,9,22,0.35,7,Rain,349
2013-1-29,76,69,62,66,63,59,93,81,69,30.06,29.99,29.94,10,10,7,21,10,26,0.01,3,Rain,333
2013-1-30,77,71,64,67,63,60,93,81,69,30.10,30.06,30.03,10,10,10,15,9,18,0.01,2,Rain,351
2013-1-31,78,72,66,65,63,60,87,76,64,30.14,30.10,30.06,10,10,10,23,14,26,T,4,Rain,16